Location: Chantarel
(45.1638°N, 1.7873°E)
Time: 14:24:25
(UTC+00:00)

ATLAS CENTAUR R/B - Pass Details

Date: 03 March 2021
Orbit: 475 x 670 km, 64.7° (Epoch: 30 March)

Event Time Altitude Azimuth Distance (km) Brightness Sun altitude
Rises 18:17:43 0° 188° (S) 2,524 4.8 -6.9°
Reaches altitude 10° 18:20:03 10° 175° (S) 1,640 3.7 -7.3°
Maximum altitude 18:23:09 27° 117° (ESE) 947 2.0 -7.9°
Drops below altitude 10° 18:26:17 10° 58° (ENE) 1,653 3.2 -8.4°
Enters shadow 18:27:02 - 53° (NE) 1,930 3.6 -8.6°
